RH
16 17 18 19 26 31 39 43 40 37 44 42 40 26 45 45 56 63 59 66 63 64 64 66 66 57 49 49 48 51 48 55 63 71 73 78 73 71 76 79 73 63 59 57
17 18 18 18 22 25 30 33 27 27 37 42 38 29 40 54 60 58 52 54 61 65 64 67 71 68 65 54 48 49 46 53 63 68 70 73 69 68 69 76 70 64 62 60
16 14 16 21 23 23 21 25 27 24 29 35 31 30 39 56 60 51 47 56 56 67 62 65 65 69 67 56 48 52 45 48 57 61 67 70 71 66 68 72 71 67 67 66
19 16 17 19 22 22 20 21 22 25 29 31 25 31 39 51 56 51 51 54 56 58 58 59 61 66 61 52 47 52 49 45 47 56 60 64 64 64 67 70 70 69 69 73
22 20 19 18 17 18 19 20 18 20 25 25 31 35 45 49 52 48 44 38 51 51 51 55 57 64 59 52 47 46 47 42 46 46 53 56 57 62 66 69 68 72 74 76
22 21 18 18 18 18 17 18 18 19 22 36 37 41 59 54 42 38 39 38 45 48 46 54 56 63 75 55 52 52 50 42 45 50 49 54 54 60 65 69 70 74 70 69
26 25 26 24 23 21 16 14 21 25 34 41 42 41 37 37 35 35 36 38 41 41 42 44 53 58 62 61 55 55 53 49 42 47 52 55 56 56 63 62 61 60 60 62
28 25 27 27 24 23 19 18 22 28 38 39 33 37 29 29 30 30 32 33 36 39 41 41 46 53 52 60 60 60 54 52 43 43 48 52 56 57 62 60 64 59 55 56
27 24 25 25 27 25 25 20 19 21 26 29 29 27 25 30 31 31 29 29 32 36 44 39 43 48 50 52 57 62 63 54 44 50 54 51 51 56 59 59 63 60 57 61
29 29 28 30 31 29 26 22 21 27 30 35 30 30 32 27 28 29 29 34 35 36 41 37 41 49 49 50 58 63 63 59 46 51 55 53 55 57 56 60 63 62 60 59
36 34 27 30 32 32 32 27 24 22 25 33 35 33 30 27 27 30 34 37 37 37 37 35 41 48 51 50 56 64 66 64 52 53 53 59 61 64 59 61 68 66 64 60
39 38 38 33 28 30 30 32 32 33 25 30 31 31 27 26 29 27 28 31 40 42 39 36 40 46 48 50 51 58 65 64 59 55 56 60 66 70 69 66 63 62 59 59
39 43 46 39 34 31 32 37 41 36 32 27 30 29 31 28 33 32 32 32 35 37 40 40 43 44 48 48 49 50 60 63 62 60 60 63 68 72 72 68 65 66 64 62
37 37 40 44 40 33 37 41 43 44 41 38 37 35 36 39 36 34 30 31 38 34 38 39 41 46 47 48 49 44 55 60 62 63 63 63 65 70 73 70 69 66 66 69
42 38 35 35 36 34 33 38 40 47 46 42 32 34 35 39 40 40 37 35 40 49 43 36 36 48 46 48 53 51 51 57 61 62 62 63 62 62 66 66 63 61 63 62
41 46 45 42 38 36 29 32 40 40 44 43 40 34 35 46 45 46 44 40 43 45 55 48 39 44 49 51 53 53 52 56 59 61 62 61 60 57 58 61 62 66 64 60
31 45 49 48 45 46 39 32 34 43 42 47 44 42 39 44 49 45 55 42 37 35 37 47 44 38 46 49 50 48 48 53 58 58 55 53 54 54 57 61 64 63 62 63
20 21 28 39 45 55 35 32 31 39 38 46 52 50 46 45 48 47 55 54 47 43 48 42 49 46 43 41 39 42 42 39 40 43 46 49 51 52 54 55 54 55 56 56
32 34 33 34 29 25 20 25 30 37 42 52 58 61 52 60 64 59 61 51 46 49 50 53 53 50 59 44 41 39 41 42 42 42 42 44 48 50 51 49 45 40 43 52
37 42 49 50 50 44 35 37 37 42 35 57 55 67 63 59 68 72 57 47 56 58 62 43 41 54 55 56 47 47 48 49 47 43 40 39 39 43 45 44 38 37 41 41
42 46 50 56 60 54 55 51 46 52 66 65 62 63 68 62 65 63 66 56 49 49 50 41 36 40 55 66 59 51 53 53 51 43 35 32 30 31 33 34 34 35 36 40
50 54 55 60 65 65 60 60 71 63 60 66 70 68 65 64 66 66 64 68 60 51 47 46 46 46 48 58 68 57 53 55 54 43 35 30 28 27 27 32 33 33 32 32
46 55 58 62 71 64 65 70 68 69 65 61 61 68 69 67 67 73 69 67 65 63 60 47 40 43 53 71 76 62 57 57 48 48 41 31 32 30 31 31 30 29 28 29
34 37 49 50 49 49 61 65 60 64 64 60 65 59 60 65 65 63 62 76 81 77 64 53 38 51 64 77 85 71 64 52 50 49 45 38 31 28 28 30 32 32 32 33
46 47 46 45 52 48 47 55 66 62 54 54 59 59 59 66 65 60 61 64 64 88 82 76 55 65 89 94 77 69 62 53 52 49 46 45 35 32 29 30 32 34 34 33
49 50 57 58 53 59 54 51 56 60 58 54 51 51 53 55 65 64 58 61 62 65 95 85 61 59 85 85 69 67 63 61 56 54 50 52 46 41 40 38 36 37 36 35